Ambajhari, India

11:31 PM IST on May 28, 2017 (GMT +0530)
Ambajhari

Weather History for 42867 - March, 2014

Change the Weather History Date:

Wednesday, March 5, 2014

  Actual Average Record
Temperature  
Mean Temperature 70 °F -  
Max Temperature 82 °F 98 °F - ()
Min Temperature 58 °F 68 °F - ()
Cooling Degree Days 5    
Growing Degree Days 20 (Base 50)    
Moisture  
Dew Point 60 °F    
Average Humidity 70    
Maximum Humidity 100    
Minimum Humidity 45    
Precipitation  
Precipitation 0.00 in 0.02 in - ()
Sea Level Pressure  
Sea Level Pressure 29.99 in    
Wind  
Wind Speed 2 mph ()    
Max Wind Speed 6 mph    
Max Gust Speed -    
Visibility 2.7 miles    
Events      
T = Trace of Precipitation, MM = Missing Value Source: Averaged Metar Reports

Daily Weather History Graph

Daily Weather History Graph

Search for Another Location

Airport or City:

Trip Planner

Search our weather history database for the weather conditions in past years. The results will help you decide how hot, cold, wet, or windy it might be!

Date:

Astronomy

Mar. 05, 2014 Rise Set
Actual Time 6:31 AM IST 6:19 PM IST
Civil Twilight 6:09 AM IST 6:41 PM IST
Nautical Twilight 5:43 AM IST 7:07 PM IST
Astronomical Twilight 5:17 AM IST 7:33 PM IST
Moon 9:12 AM IST (3/5) 10:21 PM IST (3/5)
Length of Visible Light 12h 32m
Length of Day
11h 48m
Waxing Crescent, 19% of the Moon is Illuminated
Mar 5
Waxing Crescent
Mar 8
First Quarter
Mar 16
Full
Mar 24
Last Quarter
Mar 31
New

Hourly Weather History & Observations

Time (IST) Temp. Heat Index Dew Point Humidity Pressure Visibility Wind Dir Wind Speed Gust Speed Precip Events Conditions
1:10 AM 59.0 °F - 57.2 °F 94% 30.04 in 2.5 mi Calm Calm - N/A   Haze
2:10 AM 59.0 °F - 57.2 °F 94% 30.01 in 2.5 mi NE 1.2 mph - N/A   Haze
2:30 AM 62 °F - 60 °F 92% 29.97 in 1 mi NNE 3.5 mph - -   Haze
3:10 AM 59.0 °F - 57.2 °F 94% 29.98 in 2.5 mi NNE 3.5 mph - N/A   Haze
3:40 AM 59.0 °F - 57.2 °F 94% 29.98 in 2.5 mi NE 3.5 mph - N/A   Haze
4:10 AM 59.0 °F - 57.2 °F 94% 29.98 in 1.9 mi NNE 2.3 mph - N/A   Haze
4:40 AM 59.0 °F - 57.2 °F 94% 29.98 in 1.9 mi Calm Calm - N/A   Haze
5:10 AM 59.0 °F - 57.2 °F 94% 29.98 in 1.9 mi Calm Calm - N/A   Haze
5:30 AM 60 °F - 59 °F 96% 29.99 in 1 mi Calm Calm - -   Haze
5:40 AM 59.0 °F - 57.2 °F 94% 29.98 in 1.9 mi Calm Calm - N/A   Haze
6:10 AM 57.2 °F - 57.2 °F 100% 30.04 in 1.2 mi Calm Calm - N/A   Haze
6:40 AM 57.2 °F - 55.4 °F 94% 30.04 in 1.2 mi NE 2.3 mph - N/A   Haze
8:30 AM 66 °F - 61 °F 80% 30.05 in 2 mi East 3.5 mph - -   Haze
8:40 AM 73.4 °F - 59.0 °F 61% 30.09 in 2.5 mi East 4.6 mph - N/A   Haze
9:40 AM 75.2 °F - 60.8 °F 61% 30.09 in 3.1 mi East 4.6 mph - N/A   Haze
10:10 AM 73.4 °F - 60.8 °F 65% 30.09 in 3.1 mi South 4.6 mph - N/A   Haze
10:40 AM 75.2 °F - 60.8 °F 61% 30.09 in 3.1 mi SE 5.8 mph - N/A   Haze
11:30 AM 76 °F - 66 °F 64% 30.04 in 2 mi SE 4.6 mph - -   Clear
11:40 AM 77.0 °F - 60.8 °F 57% 30.09 in 3.7 mi SSE 5.8 mph - N/A   Unknown
12:10 PM 78.8 °F - 59.0 °F 51% 30.06 in 3.7 mi South 4.6 mph - N/A   Scattered Clouds
12:40 PM 80.6 °F 81.5 °F 60.8 °F 51% 30.04 in 3.7 mi SE 4.6 mph - N/A   Scattered Clouds
1:40 PM 82.4 °F 83.4 °F 62.6 °F 51% 30.01 in 3.7 mi SSE 3.5 mph - N/A   Scattered Clouds
2:10 PM 82.4 °F 82.9 °F 60.8 °F 48% 29.98 in 3.7 mi SSE 2.3 mph - N/A   Scattered Clouds
2:30 PM 81 °F - 66 °F 52% 29.92 in 2 mi SE 4.6 mph - -   Scattered Clouds
2:40 PM 82.4 °F 82.9 °F 60.8 °F 48% 29.95 in 3.7 mi SE 4.6 mph - N/A   Scattered Clouds
3:10 PM 84.2 °F 84.4 °F 60.8 °F 45% 29.95 in 3.7 mi NNW 3.5 mph - N/A   Scattered Clouds
3:40 PM 84.2 °F 84.4 °F 60.8 °F 45% 29.95 in 3.7 mi NNE 2.3 mph - N/A   Scattered Clouds
4:40 PM 82.4 °F 82.5 °F 59.0 °F 45% 29.92 in 3.7 mi East 4.6 mph - N/A   Scattered Clouds
5:10 PM 82.4 °F 82.5 °F 59.0 °F 45% 29.92 in 3.7 mi SE 2.3 mph - N/A   Scattered Clouds
5:30 PM 80 °F - 67 °F 56% 29.88 in 2 mi ESE 4.6 mph - -   Scattered Clouds
5:40 PM 78.8 °F - 60.8 °F 54% 29.92 in 3.7 mi SE 3.5 mph - N/A   Scattered Clouds
6:10 PM 77.0 °F - 60.8 °F 57% 29.92 in 3.1 mi East 2.3 mph - N/A   Haze
6:40 PM 75.2 °F - 60.8 °F 61% 29.95 in 3.1 mi East 3.5 mph - N/A   Haze
7:10 PM 73.4 °F - 60.8 °F 65% 29.95 in 3.1 mi East 2.3 mph - N/A   Haze
8:10 PM 73.4 °F - 59.0 °F 61% 29.98 in 3.1 mi East 2.3 mph - N/A   Haze
8:30 PM 74 °F - 65 °F 66% 29.94 in 1 mi East 3.5 mph - -   Haze
8:40 PM 71.6 °F - 60.8 °F 69% 29.98 in 3.1 mi ESE 3.5 mph - N/A   Haze
9:10 PM 71.6 °F - 60.8 °F 69% 29.98 in 3.1 mi ESE 3.5 mph - N/A   Haze
9:40 PM 69.8 °F - 60.8 °F 73% 30.01 in 3.1 mi East 3.5 mph - N/A   Haze
10:10 PM 69.8 °F - 60.8 °F 73% 30.01 in 3.1 mi East 2.3 mph - N/A   Haze
10:40 PM 69.8 °F - 60.8 °F 73% 30.01 in 3.1 mi East 2.3 mph - N/A   Haze
11:10 PM 69.8 °F - 60.8 °F 73% 30.01 in 3.1 mi Calm Calm - N/A   Haze
11:30 PM 71 °F - 65 °F 75% 29.96 in 1 mi South 2.3 mph - -   Haze